DAL650 KCOS-KSLC

Flight info

Callsign DAL650
Flight time N/A
Altitude 17000
Route DRAKE V83 PUB/N0449F380 HBU HELPR PITTT1
Aircraft A20N/M-SDE2E3FGHIRWXY/LB1

Departure

Time 2026-04-21 04:58
Airport City of Colorado Springs Municipal Airport (KCOS)

Arrival

Time N/A
Airport Salt Lake City International Airport (KSLC)
Time Latitude Longitude Altitude Speed Heading
2026-04-21 04:29 38.80016 -104.70081 6196 ft 0 kts 179°
2026-04-21 04:46 38.80032 -104.70081 6196 ft 3 kts 179°
2026-04-21 04:47 38.80050 -104.70081 6195 ft 2 kts 172°
2026-04-21 04:47 38.80065 -104.70093 6196 ft 3 kts 99°
2026-04-21 04:47 38.80065 -104.70096 6196 ft 0 kts 94°
2026-04-21 04:48 38.80065 -104.70095 6196 ft 0 kts 94°
2026-04-21 04:49 38.80065 -104.70092 6196 ft 0 kts 94°
2026-04-21 04:49 38.80069 -104.70088 6195 ft 1 kts 35°
2026-04-21 04:49 38.80079 -104.70090 6197 ft 0 kts 330°
2026-04-21 04:49 38.80079 -104.70099 6197 ft 4 kts 266°
2026-04-21 04:50 38.80076 -104.70193 6197 ft 12 kts 270°
2026-04-21 04:50 38.80076 -104.70235 6197 ft 0 kts 270°
2026-04-21 04:51 38.80076 -104.70245 6197 ft 8 kts 270°
2026-04-21 04:51 38.80076 -104.70330 6197 ft 11 kts 270°
2026-04-21 04:51 38.80103 -104.70436 6197 ft 8 kts 336°
2026-04-21 04:52 38.80181 -104.70436 6197 ft 16 kts
2026-04-21 04:52 38.80262 -104.70448 6197 ft 5 kts 328°
2026-04-21 04:52 38.80280 -104.70497 6196 ft 15 kts 274°
2026-04-21 04:52 38.80279 -104.70741 6197 ft 24 kts 270°
2026-04-21 04:53 38.80280 -104.70962 6197 ft 28 kts 270°
2026-04-21 04:53 38.80281 -104.71168 6196 ft 21 kts 270°
2026-04-21 04:53 38.80279 -104.71304 6196 ft 15 kts 261°
2026-04-21 04:53 38.80186 -104.71349 6196 ft 18 kts 178°
2026-04-21 04:54 38.80025 -104.71349 6196 ft 27 kts 179°
2026-04-21 04:54 38.79848 -104.71349 6196 ft 22 kts 180°
2026-04-21 04:54 38.79731 -104.71349 6197 ft 19 kts 180°
2026-04-21 04:54 38.79572 -104.71350 6197 ft 26 kts 180°
2026-04-21 04:55 38.79411 -104.71358 6197 ft 6 kts 208°
2026-04-21 04:55 38.79391 -104.71413 6196 ft 9 kts 261°
2026-04-21 04:55 38.79393 -104.71453 6198 ft 0 kts 274°
2026-04-21 04:56 38.79394 -104.71541 6199 ft 37 kts 271°
2026-04-21 04:57 38.79403 -104.71607 6199 ft 0 kts 307°
2026-04-21 04:57 38.79407 -104.71606 6198 ft 1 kts 354°
2026-04-21 04:57 38.79562 -104.71577 6198 ft 54 kts
2026-04-21 04:57 38.80164 -104.71594 6195 ft 131 kts
2026-04-21 04:58 38.81316 -104.71589 6597 ft 178 kts 360°
2026-04-21 04:58 38.82518 -104.71578 7752 ft 172 kts 360°
2026-04-21 04:58 38.83774 -104.71563 8393 ft 195 kts
2026-04-21 04:58 38.85122 -104.70898 8742 ft 225 kts 41°
2026-04-21 04:59 38.85867 -104.69078 9205 ft 245 kts 81°
2026-04-21 04:59 38.85581 -104.66828 9679 ft 271 kts 116°
2026-04-21 04:59 38.84427 -104.64886 10511 ft 279 kts 139°
2026-04-21 04:59 38.82766 -104.63565 11429 ft 284 kts 155°
2026-04-21 05:00 38.80916 -104.62627 12366 ft 288 kts 162°
2026-04-21 05:00 38.78972 -104.61929 13269 ft 292 kts 166°
2026-04-21 05:00 38.75316 -104.59610 15185 ft 305 kts 143°
2026-04-21 05:01 38.73657 -104.57825 16074 ft 323 kts 138°
2026-04-21 05:01 38.71965 -104.55751 16576 ft 352 kts 135°
2026-04-21 05:01 38.70160 -104.53417 16725 ft 387 kts 135°
2026-04-21 05:01 38.68183 -104.50846 16716 ft 423 kts 135°
2026-04-21 05:02 38.66026 -104.48083 16576 ft 454 kts 135°
2026-04-21 05:02 38.63785 -104.45263 18108 ft 432 kts 136°
2026-04-21 05:02 38.61718 -104.42676 20458 ft 397 kts 136°
2026-04-21 05:02 38.59816 -104.40298 22625 ft 367 kts 136°
2026-04-21 05:03 38.58065 -104.38107 24489 ft 339 kts 136°
2026-04-21 05:03 38.56446 -104.36083 26028 ft 313 kts 136°
2026-04-21 05:03 38.54947 -104.34208 27399 ft 290 kts 136°
2026-04-21 05:03 38.53465 -104.32356 27184 ft 316 kts 136°
2026-04-21 05:04 38.51732 -104.30242 26153 ft 370 kts 141°
2026-04-21 05:04 38.49259 -104.28885 25461 ft 412 kts 173°
2026-04-21 05:04 38.46302 -104.29388 24600 ft 454 kts 207°
2026-04-21 05:04 38.44008 -104.31999 25644 ft 440 kts 235°
2026-04-21 05:05 38.42850 -104.35557 25802 ft 454 kts 262°
2026-04-21 05:05 38.42640 -104.39719 25227 ft 484 kts 259°
2026-04-21 05:05 38.41301 -104.43692 25407 ft 494 kts 234°
2026-04-21 05:05 38.39200 -104.46929 27523 ft 432 kts 229°